User: anonymous   Login
Location: Utrecht
(52.0830°N, 5.1330°E)
Time: 17:38:21
(UTC+01:00)
Language:

Cosmos 1092 Rocket - Orbit

View from above orbital plane
View from above orbital plane
View from above satellite
View from above satellite

Ground track
Ground track

The orbit data is extracted from the following two-line orbital elements,

1 11327U 79030B   15032.12821361 -.00000052  00000-0 -68148-4 0  9280
2 11327 082.9476 219.6455 0028789 088.1583 041.8832 13.76954964799815
Epoch (UTC): 01 February 2015 03:04:37
Eccentricity: 0.0028789
inclination: 82.9476°
perigee height: 953 km
apogee height: 996 km
right ascension of ascending node: 219.6455°
argument of perigee: 88.1583°
revolutions per day: 13.76954964
mean anomaly at epoch: 41.8832°
orbit number at epoch: 79981

The dashed part of the orbit path shows where the satellite is in the earth's shadow,  

DLR